| time (UTC) | temp F | wind direction | speed MPH | gust MPH | rain 1hr in | rain 24hr in | rain mn in | humidity % | barometer mb |
| 20260509074551 | 52 | 294 | 0.0 | 2.0 | 0.00 | 0.00 | 0.00 | 82 | 1022.4 |
| 20260509073056 | 52 | 294 | 0.0 | 2.0 | 0.00 | 0.00 | 0.00 | 82 | 1022.5 |
| 20260509071555 | 52 | 334 | 0.0 | 2.0 | 0.00 | 0.00 | 0.00 | 81 | 1022.5 |
| 20260509070049 | 52 | 334 | 1.0 | 2.0 | 0.00 | 0.00 | 0.00 | 82 | 1022.5 |
| 20260509064557 | 52 | 334 | 0.0 | 2.0 | 0.00 | 0.00 | 0.00 | 82 | 1022.5 |
| 20260509063046 | 52 | 334 | 0.0 | 1.0 | 0.00 | 0.00 | 0.00 | 82 | 1022.5 |
| 20260509061542 | 53 | 334 | 1.0 | 3.0 | 0.00 | 0.00 | 0.00 | 82 | 1022.4 |
| 20260509060042 | 53 | 34 | 0.0 | 2.0 | 0.00 | 0.00 | 0.00 | 82 | 1022.3 |
| 20260509054548 | 54 | 34 | 1.0 | 3.0 | 0.00 | 0.00 | 0.00 | 82 | 1022.2 |
| 20260509053041 | 54 | 151 | 0.0 | 1.0 | 0.00 | 0.00 | 0.00 | 81 | 1022.1 |
| 20260509051541 | 55 | 151 | 0.0 | 0.0 | 0.00 | 0.00 | 0.00 | 80 | 1022.0 |
| 20260509050040 | 56 | 153 | 0.0 | 1.0 | 0.00 | 0.00 | 0.00 | 80 | 1022.0 |
| 20260509044539 | 57 | 153 | 0.0 | 1.0 | 0.00 | 0.00 | 0.00 | 78 | 1022.0 |
| 20260509043038 | 58 | 153 | 2.0 | 3.0 | 0.00 | 0.00 | 0.00 | 77 | 1021.8 |
| 20260509041606 | 59 | 5 | 0.0 | 2.0 | 0.00 | 0.00 | 0.00 | 75 | 1021.7 |
| 20260509040039 | 59 | 360 | 1.0 | 4.0 | 0.00 | 0.00 | 0.00 | 73 | 1021.5 |
| 20260509034536 | 60 | 360 | 3.0 | 4.0 | 0.00 | 0.00 | 0.00 | 72 | 1021.5 |
| 20260509033037 | 60 | 355 | 1.0 | 4.0 | 0.00 | 0.00 | 0.00 | 71 | 1021.4 |
| 20260509031537 | 61 | 34 | 1.0 | 4.0 | 0.00 | 0.00 | 0.00 | 69 | 1021.3 |
| 20260509030034 | 61 | 60 | 2.0 | 4.0 | 0.00 | 0.00 | 0.00 | 67 | 1021.2 |
| 20260509024533 | 62 | 63 | 2.0 | 8.0 | 0.00 | 0.00 | 0.00 | 65 | 1021.1 |
| 20260509023032 | 64 | 71 | 2.0 | 8.0 | 0.00 | 0.00 | 0.00 | 63 | 1021.0 |
| 20260509021536 | 64 | 41 | 1.0 | 5.0 | 0.00 | 0.00 | 0.00 | 61 | 1020.9 |
| 20260509020043 | 65 | 82 | 1.0 | 6.0 | 0.00 | 0.00 | 0.00 | 60 | 1020.9 |
| 20260509014532 | 65 | 52 | 2.0 | 5.0 | 0.00 | 0.00 | 0.00 | 60 | 1020.8 |
| 20260509013040 | 66 | 18 | 3.0 | 8.0 | 0.00 | 0.00 | 0.00 | 58 | 1020.9 |
| 20260509011530 | 67 | 262 | 0.0 | 6.0 | 0.00 | 0.00 | 0.00 | 59 | 1021.0 |
| 20260509010029 | 67 | 54 | 1.0 | 6.0 | 0.00 | 0.00 | 0.00 | 56 | 1021.0 |
| 20260509004533 | 68 | 345 | 3.0 | 8.0 | 0.00 | 0.00 | 0.00 | 54 | 1021.0 |
| 20260509003027 | 67 | 305 | 2.0 | 8.0 | 0.00 | 0.00 | 0.00 | 55 | 1020.9 |
| 20260509001527 | 69 | 283 | 3.0 | 8.0 | 0.00 | 0.00 | 0.00 | 53 | 1021.0 |
| 20260509000024 | 68 | 20 | 2.0 | 7.0 | 0.00 | 0.00 | 0.00 | 55 | 1021.1 |
| 20260508234524 | 68 | 283 | 1.0 | 7.0 | 0.00 | 0.00 | 0.00 | 55 | 1021.2 |
| 20260508233021 | 67 | 238 | 3.0 | 7.0 | 0.00 | 0.00 | 0.00 | 56 | 1021.2 |
| 20260508231520 | 67 | 209 | 5.0 | 9.0 | 0.00 | 0.00 | 0.00 | 56 | 1021.2 |
| 20260508230029 | 67 | 224 | 3.0 | 9.0 | 0.00 | 0.00 | 0.00 | 58 | 1021.2 |
| 20260508224525 | 67 | 200 | 6.0 | 9.0 | 0.00 | 0.00 | 0.00 | 57 | 1021.2 |
| 20260508223021 | 67 | 243 | 6.0 | 11.0 | 0.00 | 0.00 | 0.00 | 56 | 1021.3 |
| 20260508221514 | 66 | 172 | 3.0 | 10.0 | 0.00 | 0.00 | 0.00 | 59 | 1021.4 |
| 20260508220020 | 66 | 252 | 6.0 | 9.0 | 0.00 | 0.00 | 0.00 | 58 | 1021.4 |
| 20260508214523 | 65 | 187 | 5.0 | 9.0 | 0.00 | 0.00 | 0.00 | 58 | 1021.4 |
| 20260508213008 | 64 | 291 | 2.0 | 7.0 | 0.00 | 0.00 | 0.00 | 61 | 1021.5 |
| 20260508211518 | 64 | 200 | 5.0 | 8.0 | 0.00 | 0.00 | 0.00 | 62 | 1021.6 |
| 20260508210005 | 63 | 174 | 2.0 | 5.0 | 0.00 | 0.00 | 0.00 | 60 | 1021.6 |
| 20260508204504 | 62 | 80 | 1.0 | 6.0 | 0.00 | 0.00 | 0.00 | 64 | 1021.6 |
| 20260508203101 | 60 | 309 | 3.0 | 4.0 | 0.00 | 0.00 | 0.00 | 64 | 1021.7 |
| 20260508201601 | 61 | 213 | 4.0 | 7.0 | 0.00 | 0.00 | 0.00 | 65 | 1021.6 |
| 20260508200116 | 60 | 137 | 3.0 | 7.0 | 0.00 | 0.00 | 0.00 | 63 | 1021.7 |
| 20260508194602 | 61 | 171 | 3.0 | 8.0 | 0.00 | 0.00 | 0.00 | 65 | 1021.7 |
| 20260508193138 | 60 | 159 | 2.0 | 6.0 | 0.00 | 0.00 | 0.00 | 67 | 1021.7 |
| 20260508191559 | 59 | 242 | 3.0 | 6.0 | 0.00 | 0.00 | 0.00 | 66 | 1021.8 |
| 20260508190055 | 60 | 177 | 3.0 | 7.0 | 0.00 | 0.00 | 0.00 | 66 | 1021.8 |
| 20260508184604 | 59 | 251 | 4.0 | 9.0 | 0.00 | 0.00 | 0.00 | 69 | 1021.9 |
| 20260508183108 | 58 | 310 | 1.0 | 9.0 | 0.00 | 0.00 | 0.00 | 69 | 1021.9 |
| 20260508181601 | 57 | 234 | 0.0 | 4.0 | 0.00 | 0.00 | 0.00 | 70 | 1021.9 |
| 20260508180044 | 57 | 335 | 0.0 | 5.0 | 0.00 | 0.00 | 0.00 | 74 | 1021.7 |
| 20260508174547 | 57 | 154 | 4.0 | 7.0 | 0.00 | 0.00 | 0.00 | 72 | 1021.6 |
| 20260508173039 | 55 | 184 | 1.0 | 5.0 | 0.00 | 0.00 | 0.00 | 78 | 1021.5 |
| 20260508171538 | 55 | 164 | 1.0 | 4.0 | 0.00 | 0.00 | 0.00 | 76 | 1021.5 |
| 20260508170036 | 54 | 211 | 2.0 | 5.0 | 0.00 | 0.00 | 0.00 | 78 | 1021.3 |
| 20260508164537 | 54 | 235 | 0.0 | 5.0 | 0.00 | 0.00 | 0.00 | 80 | 1021.3 |
| 20260508163031 | 54 | 236 | 0.0 | 3.0 | 0.00 | 0.00 | 0.00 | 81 | 1021.1 |
| 20260508161527 | 52 | 143 | 0.0 | 6.0 | 0.00 | 0.00 | 0.00 | 80 | 1021.0 |
| 20260508160025 | 52 | 153 | 2.0 | 4.0 | 0.00 | 0.00 | 0.00 | 81 | 1021.2 |
| 20260508154541 | 52 | 52 | 1.0 | 6.0 | 0.00 | 0.00 | 0.00 | 81 | 1020.7 |
| 20260508153021 | 52 | 150 | 3.0 | 7.0 | 0.00 | 0.00 | 0.00 | 82 | 1020.7 |
| 20260508151522 | 52 | 111 | 3.0 | 6.0 | 0.00 | 0.00 | 0.00 | 82 | 1020.5 |
| 20260508150019 | 51 | 171 | 1.0 | 3.0 | 0.00 | 0.00 | 0.00 | 83 | 1020.5 |
| 20260508144517 | 51 | 171 | 0.0 | 2.0 | 0.00 | 0.00 | 0.00 | 82 | 1020.7 |
| 20260508143017 | 50 | 171 | 0.0 | 2.0 | 0.00 | 0.00 | 0.00 | 79 | 1020.5 |
| 20260508141522 | 49 | 171 | 1.0 | 2.0 | 0.00 | 0.00 | 0.00 | 78 | 1020.7 |
| 20260508140014 | 49 | 269 | 0.0 | 2.0 | 0.00 | 0.00 | 0.00 | 78 | 1020.5 |
| 20260508134513 | 48 | 269 | 0.0 | 0.0 | 0.00 | 0.00 | 0.00 | 78 | 1020.1 |
| 20260508133009 | 47 | 269 | 0.0 | 1.0 | 0.00 | 0.00 | 0.00 | 79 | 1019.8 |
| 20260508131506 | 47 | 269 | 0.0 | 1.0 | 0.00 | 0.00 | 0.00 | 80 | 1019.5 |
| 20260508130005 | 47 | 207 | 0.0 | 1.0 | 0.00 | 0.00 | 0.00 | 80 | 1019.3 |
| 20260508124605 | 47 | 207 | 0.0 | 2.0 | 0.00 | 0.00 | 0.00 | 81 | 1018.9 |
| 20260508123058 | 48 | 219 | 1.0 | 3.0 | 0.00 | 0.00 | 0.00 | 81 | 1018.7 |
| 20260508121556 | 48 | 360 | 0.0 | 0.0 | 0.00 | 0.00 | 0.00 | 81 | 1018.7 |
| 20260508120055 | 48 | 360 | 0.0 | 1.0 | 0.00 | 0.00 | 0.00 | 81 | 1018.6 |
| 20260508114554 | 48 | 360 | 0.0 | 1.0 | 0.00 | 0.00 | 0.00 | 81 | 1018.4 |
| 20260508113054 | 48 | 360 | 0.0 | 2.0 | 0.00 | 0.00 | 0.00 | 81 | 1018.3 |
| 20260508111552 | 48 | 360 | 0.0 | 0.0 | 0.00 | 0.00 | 0.00 | 81 | 1018.1 |
| 20260508110048 | 48 | 360 | 0.0 | 1.0 | 0.00 | 0.00 | 0.00 | 81 | 1017.9 |
| 20260508104546 | 48 | 360 | 0.0 | 0.0 | 0.00 | 0.00 | 0.00 | 81 | 1017.7 |
| 20260508103043 | 48 | 25 | 0.0 | 1.0 | 0.00 | 0.00 | 0.00 | 81 | 1017.5 |
| 20260508101542 | 48 | 78 | 1.0 | 2.0 | 0.00 | 0.00 | 0.00 | 81 | 1017.4 |
| 20260508100053 | 48 | 78 | 0.0 | 1.0 | 0.00 | 0.00 | 0.00 | 81 | 1017.3 |
| 20260508094541 | 48 | 78 | 0.0 | 0.0 | 0.00 | 0.00 | 0.00 | 81 | 1017.3 |
| 20260508093037 | 48 | 78 | 0.0 | 1.0 | 0.00 | 0.00 | 0.00 | 81 | 1017.1 |
| 20260508091535 | 48 | 78 | 0.0 | 1.0 | 0.00 | 0.00 | 0.00 | 82 | 1017.0 |
| 20260508090049 | 49 | 78 | 0.0 | 1.0 | 0.00 | 0.00 | 0.00 | 81 | 1016.9 |
| 20260508084532 | 49 | 78 | 0.0 | 2.0 | 0.00 | 0.00 | 0.00 | 82 | 1016.8 |
| 20260508083030 | 49 | 78 | 0.0 | 0.0 | 0.00 | 0.00 | 0.00 | 82 | 1016.8 |
| 20260508081532 | 49 | 78 | 0.0 | 2.0 | 0.00 | 0.00 | 0.00 | 82 | 1016.7 |
| 20260508080027 | 49 | 78 | 0.0 | 1.0 | 0.00 | 0.00 | 0.00 | 82 | 1016.7 |